Weather History for Defiance, OH

Change the Weather History Date:

Monday, December 31, 2012

  Actual Average Record
Temperature  
Mean Temperature 28 °F -  
Max Temperature 35 °F 33 °F 61 °F (2004)
Min Temperature 21 °F 17 °F -13 °F (1983)
Degree Days  
Heating Degree Days 37    
Moisture  
Dew Point 25 °F    
Average Humidity 81    
Maximum Humidity 93    
Minimum Humidity 64    
Precipitation  
Precipitation 0.01 in - - ()
Sea Level Pressure  
Sea Level Pressure 30.07 in    
Wind  
Wind Speed 10 mph (SW)    
Max Wind Speed 16 mph    
Max Gust Speed 25 mph    
Visibility 7 miles    
Events Snow    
Averages and records for this station are not official NWS values.
T = Trace of Precipitation, MM = Missing Value Source: NWS Daily Summary

Daily Weather History Graph

Daily Weather History Graph

Search for Another Location

Airport:

Trip Planner

Search our weather history database for the weather conditions in past years. The results will help you decide how hot, cold, wet, or windy it might be!

Date:

Astronomy

Dec. 31, 2012 Rise Set
Actual Time 8:03 AM EST 5:18 PM EST
Civil Twilight 7:32 AM EST 5:49 PM EST
Nautical Twilight 6:57 AM EST 6:24 PM EST
Astronomical Twilight 6:24 AM EST 6:58 PM EST
Moon 8:50 PM EST (12/31) 9:42 AM EST (12/31)
Length of Visible Light 10h 17m
Length of Day
9h 14m
Waning Gibbous, 90% of the Moon is Illuminated
Dec 31
Waning Gibbous
Jan 4
Last Quarter
Jan 11
New
Jan 18
First Quarter
Jan 26
Full

Hourly Weather History & Observations

Time (EST) Temp. Windchill Dew Point Humidity Pressure Visibility Wind Dir Wind Speed Gust Speed Precip Events Conditions
12:53 AM 21.9 °F 14.5 °F 16.0 °F 78% 30.25 in 8.0 mi SSW 5.8 mph - N/A   Clear
1:53 AM 24.1 °F 15.2 °F 17.1 °F 75% 30.22 in 9.0 mi SSW 8.1 mph - N/A   Clear
2:53 AM 26.1 °F 15.0 °F 18.0 °F 71% 30.20 in 10.0 mi SSW 12.7 mph - N/A   Clear
3:53 AM 26.1 °F 15.6 °F 19.0 °F 75% 30.18 in 10.0 mi SSW 11.5 mph 20.7 mph N/A   Clear
4:53 AM 27.0 °F 15.6 °F 19.9 °F 75% 30.14 in 10.0 mi SSW 13.8 mph - N/A   Clear
5:53 AM 27.0 °F 15.6 °F 19.9 °F 75% 30.14 in 9.0 mi SSW 13.8 mph - N/A   Clear
6:53 AM 27.0 °F 17.3 °F 21.0 °F 78% 30.13 in 10.0 mi SSW 10.4 mph - N/A   Clear
7:53 AM 28.9 °F 19.8 °F 21.0 °F 72% 30.11 in 10.0 mi SW 10.4 mph - N/A   Clear
8:53 AM 30.0 °F 19.5 °F 21.0 °F 69% 30.10 in 10.0 mi SW 13.8 mph - N/A   Clear
9:53 AM 30.9 °F 21.2 °F 21.9 °F 69% 30.10 in 10.0 mi SW 12.7 mph 20.7 mph N/A   Clear
10:53 AM 32.0 °F 22.5 °F 21.9 °F 66% 30.10 in 10.0 mi SW 12.7 mph - N/A   Mostly Cloudy
11:53 AM 33.1 °F 24.4 °F 23.0 °F 66% 30.08 in 10.0 mi SW 11.5 mph - N/A   Overcast
12:53 PM 35.1 °F 25.2 °F 24.1 °F 64% 30.04 in 10.0 mi SW 16.1 mph 21.9 mph N/A   Scattered Clouds
1:53 PM 34.0 °F 24.2 °F 25.0 °F 70% 30.02 in 10.0 mi SW 15.0 mph 25.3 mph N/A   Overcast
2:29 PM 32.0 °F 22.1 °F 28.4 °F 87% 30.00 in 7.0 mi SW 13.8 mph 21.9 mph N/A   Overcast
2:53 PM 33.1 °F 23.9 °F 28.0 °F 82% 30.04 in 10.0 mi SW 12.7 mph 20.7 mph N/A   Overcast
3:05 PM 33.8 °F 24.3 °F 28.4 °F 81% 30.02 in 2.0 mi SW 13.8 mph 21.9 mph 0.00 in Snow Light Snow
3:13 PM 32.0 °F 22.5 °F 28.4 °F 87% 30.01 in 1.5 mi SW 12.7 mph 23.0 mph 0.00 in Snow Light Snow
3:35 PM 32.0 °F 23.0 °F 28.4 °F 87% 30.02 in 0.8 mi WSW 11.5 mph 18.4 mph 0.00 in Snow Light Snow
3:53 PM 32.0 °F 24.2 °F 28.9 °F 88% 30.04 in 0.8 mi WSW 9.2 mph 16.1 mph 0.00 in Snow Light Snow
4:05 PM 32.0 °F 24.8 °F 28.4 °F 87% 30.01 in 1.0 mi WSW 8.1 mph - 0.00 in Snow Light Snow
4:30 PM 32.0 °F 24.2 °F 30.2 °F 93% 30.00 in 2.0 mi SW 9.2 mph - 0.00 in Snow Light Snow
4:43 PM 32.0 °F 23.0 °F 28.4 °F 87% 30.01 in 3.0 mi SW 11.5 mph - 0.00 in Snow Light Snow
4:53 PM 32.0 °F 23.0 °F 28.9 °F 88% 30.04 in 4.0 mi SW 11.5 mph - 0.00 in Snow Light Snow
5:53 PM 32.0 °F 24.2 °F 28.9 °F 88% 30.03 in 4.0 mi SW 9.2 mph - 0.00 in Snow Light Snow
6:53 PM 32.0 °F 24.8 °F 28.9 °F 88% 30.04 in 3.0 mi WSW 8.1 mph - 0.00 in Snow Light Snow
7:04 PM 32.0 °F 25.6 °F 28.4 °F 87% 30.02 in 2.5 mi WSW 6.9 mph - 0.01 in Snow Light Snow
7:11 PM 32.0 °F 25.6 °F 28.4 °F 87% 30.02 in 2.0 mi SW 6.9 mph - 0.01 in Snow Light Snow
7:22 PM 32.0 °F 26.4 °F 28.4 °F 87% 30.01 in 3.0 mi WSW 5.8 mph - 0.01 in Snow Light Snow
7:53 PM 32.0 °F 26.4 °F 30.0 °F 92% 30.04 in 8.0 mi WSW 5.8 mph - 0.01 in   Overcast
8:29 PM 33.8 °F 28.6 °F 28.4 °F 81% 30.03 in 9.0 mi WSW 5.8 mph - N/A   Overcast
8:53 PM 33.1 °F 26.9 °F 28.9 °F 85% 30.05 in 9.0 mi WSW 6.9 mph - N/A   Overcast
9:53 PM 33.1 °F 28.7 °F 28.9 °F 85% 30.05 in 10.0 mi WSW 4.6 mph - N/A   Overcast
10:49 PM 32.0 °F - 28.4 °F 87% 30.02 in 9.0 mi Calm Calm - N/A   Overcast
11:53 PM 32.0 °F 28.7 °F 27.0 °F 82% 30.06 in 8.0 mi West 3.5 mph - N/A   Overcast